Volver al catálogo

COSMOS 1275 DEB

ActivoPO
NORAD 12962·DEBRIS·🇷🇺 Russia

Lanzado Jun 4, 1981 desde Plesetsk Cosmodrome

Loading…

Próximos Pases (próximas 24 horas)

TLE

ActualizadoSource: Space-Track

Época: Sep 14, 2026, 09:52 UTC

1 12962U 81053EH  26257.41153068  .00000988  00000-0  62109-3 0  9993
2 12962  82.9610 302.6845 0026712 211.3465 148.6116 14.03328178273024

Sigue COSMOS 1275 DEB en tiempo real con AllMySat

Download on the App Store